Regional Weather Roundup
Issued by NWS Kansas City/Pleasant Hill, MO

Home | Current Version | Previous Version | Text Only | Print | Product List | Glossary On
Versions: 1 2 3 4 5 6 7 8 9 10 11 12 13 14 15 16 17 18 19 20 21 22 23 24 25 26 27 28 29 30 31 32 33 34 35 36 37 38 39 40 41 42 43 44 45 46 47 48 49 50
000
ASUS43 KEAX 060111
RWREAX

WEATHER ROUNDUP FOR EASTERN KANSAS AND NORTHWEST MISSOURI
NATIONAL WEATHER SERVICE KANSAS CITY/PLEASANT HILL MO
800 PM CDT SUN JUL 05 2015

KSZ040-057-103>105-MOZ028-029-037-043-060200-
...KANSAS CITY METROPOLITAN AREA...

CITY           SKY/WX    TMP DP  RH WIND       PRES   REMARKS
K.C. INTL      PTCLDY    85  75  72 S15       29.89S HX  93
K.C. DOWNTOWN  CLEAR     88  74  63 S10G20    29.88S HX  96
LEES SUMMIT    CLEAR     86  74  67 S9        29.91S HX  94
OLATHE - IXD   CLEAR     86  75  69 SE14      29.90S HX  95
OLATHE - OJC   CLEAR     84  74  71 S13       29.90R HX  91
LAWRENCE       CLEAR     87  76  69 SE8       29.87R HX  97

$$

MOZ001>008-011>017-020>025-030>033-038>040-044>046-053-054-060200-
...NORTHERN AND CENTRAL MISSOURI...

CITY           SKY/WX    TMP DP  RH WIND       PRES   REMARKS
ST. JOSEPH     MOCLDY    87  75  67 S14       29.86S HX  96
MOSBY          CLEAR     86  73  66 SE8       29.90R HX  93
HARRISONVILLE  CLEAR     86  75  70 SE7       29.94S HX  95
WHITEMAN AFB   CLEAR     83  74  73 S10G17    29.93R HX  90
CLINTON        PTCLDY    82  72  69 S12G21    29.96R
SEDALIA        CLEAR     83  74  74 SE12      29.96S
WARSAW         FAIR      77  66  69 CALM      29.97R
CHILLICOTHE      N/A     85  73  67 VRB7G16   29.92S HX  91
KIRKSVILLE     PTCLDY    79  68  69 SE9       29.95F

$$

MOZ041-047>049-056>058-063>065-088>090-097-060200-
...EASTERN AND SOUTHERN MISSOURI...

CITY           SKY/WX    TMP DP  RH WIND       PRES   REMARKS
ST. LOUIS INTL MOCLDY    84  66  54 S9        30.00S
SPIRIT OF STL  PTCLDY    81  70  69 SE3       29.98S HAZE
COLUMBIA       CLEAR     81  71  71 S8        29.98R
JEFFERSON CITY CLEAR     83  70  64 SE6       29.96R
MEXICO         PTCLDY    84  73  70 S5        29.97F HX  91
ROLLA          PTCLDY    79  72  79 SE3       30.00R
LEBANON        PTCLDY    77  66  69 SE5       30.01F
OSAGE BEACH    MOCLDY    82  72  69 SW12      29.99S
SPRINGFIELD    MOCLDY    74  68  81 S9        29.98F
BRANSON        MOCLDY    72  68  88 E5        30.03R
JOPLIN         PTCLDY    77  66  68 SE6       29.95S
WEST PLAINS    MOCLDY    79  71  76 S6        30.05R
MALDEN         CLEAR     82  72  69 SW3       30.03R

$$

IAZ060-094-KSZ022-034>040-054-083-096-NEZ052-066-093-060200-
...KANSAS...SOUTHEAST NEBRASKA AND IOWA...

CITY           SKY/WX    TMP DP  RH WIND       PRES   REMARKS
TOPEKA         CLEAR     88  74  63 SE8       29.85S HX  96
MANHATTAN      CLEAR     91  72  53 S13       29.80S HX  98
EMPORIA        CLEAR     88  71  57 S13       29.86R HX  94
CHANUTE        CLEAR     88  73  61 S12G21    29.90R HX  95
WICHITA        PTCLDY    93  65  39 S21       29.83R HX  95
OMAHA          MOCLDY    88  74  63 SE21G28   29.79F HX  96
LINCOLN        PTCLDY    88  73  61 SE15      29.78S HX  95
FALLS CITY     PTCLDY    86  74  67 SE9       29.83S HX  94
LAMONI         PTCLDY    83  72  69 SE9       29.90S
DES MOINES     PTCLDY    83  68  60 S13       29.88F

$$




USA.gov is the U.S. government's official web portal to all federal, state and local government web resources and services.